Waskish, MN

10:05 PM CDT on October 23, 2017 (GMT -0500)
Waskish Municipal

Weather History for KVWU - October, 2013

Change the Weather History Date:

Saturday, October 26, 2013

  Actual Average (KBDE) Record (KBDE)
Temperature  
Mean Temperature 36 °F -  
Max Temperature 39 °F 53 °F 76 °F (1989)
Min Temperature 33 °F 30 °F -8 °F (1936)
Degree Days  
Heating Degree Days 29    
Moisture  
Dew Point 31 °F    
Average Humidity 77    
Maximum Humidity 93    
Minimum Humidity 65    
Precipitation  
Precipitation 0.00 in - - ()
Sea Level Pressure  
Sea Level Pressure 29.97 in    
Wind  
Wind Speed 12 mph (West)    
Max Wind Speed 17 mph    
Max Gust Speed 25 mph    
Visibility 10 miles    
Events Rain    
Averages and records for this station are not official NWS values.
T = Trace of Precipitation, MM = Missing Value Source: NWS Daily Summary

Daily Weather History Graph

Daily Weather History Graph

Search for Another Location

Airport or City:

Trip Planner

Search our weather history database for the weather conditions in past years. The results will help you decide how hot, cold, wet, or windy it might be!

Date:

Astronomy

Oct. 26, 2013 Rise Set
Actual Time 7:54 AM CDT 6:08 PM CDT
Civil Twilight 7:22 AM CDT 6:40 PM CDT
Nautical Twilight 6:45 AM CDT 7:17 PM CDT
Astronomical Twilight 6:09 AM CDT 7:53 PM CDT
Moon No Moon Rise 2:14 PM CDT (10/26)
Length of Visible Light 11h 18m
Length of Day
10h 14m
Waning Gibbous, 53% of the Moon is Illuminated
Oct 26
Waning Gibbous
Oct 26
Last Quarter
Nov 3
New
Nov 9
First Quarter
Nov 17
Full

Hourly Weather History & Observations

Time (CDT) Temp. Windchill Dew Point Humidity Pressure Visibility Wind Dir Wind Speed Gust Speed Precip Events Conditions
12:03 AM 37.4 °F 28.2 °F 35.6 °F 93% 29.81 in 10.0 mi WNW 16.1 mph 24.2 mph N/A   Overcast
12:23 AM 37.4 °F 28.5 °F 35.6 °F 93% 29.82 in 10.0 mi WNW 15.0 mph 21.9 mph N/A   Light Drizzle
12:43 AM 37.4 °F 27.8 °F 33.8 °F 87% 29.82 in 10.0 mi WNW 17.3 mph 21.9 mph N/A   Overcast
1:03 AM 37.4 °F 28.9 °F 33.8 °F 87% 29.83 in 10.0 mi WNW 13.8 mph 20.7 mph N/A   Overcast
1:24 AM 37.4 °F 28.2 °F 33.8 °F 87% 29.83 in 10.0 mi WNW 16.1 mph 20.7 mph N/A   Overcast
1:43 AM 37.4 °F 27.8 °F 33.8 °F 87% 29.84 in 10.0 mi WNW 17.3 mph 25.3 mph N/A   Overcast
2:03 AM 37.4 °F 28.9 °F 33.8 °F 87% 29.84 in 10.0 mi WNW 13.8 mph 20.7 mph N/A   Overcast
2:23 AM 37.4 °F 28.2 °F 32.0 °F 81% 29.85 in 10.0 mi WNW 16.1 mph 23.0 mph N/A   Overcast
2:43 AM 37.4 °F 28.9 °F 32.0 °F 81% 29.86 in 10.0 mi WNW 13.8 mph 21.9 mph N/A   Overcast
3:03 AM 37.4 °F 29.3 °F 32.0 °F 81% 29.87 in 10.0 mi WNW 12.7 mph 20.7 mph N/A   Overcast
3:23 AM 37.4 °F 29.8 °F 32.0 °F 81% 29.87 in 10.0 mi West 11.5 mph 19.6 mph N/A   Overcast
3:43 AM 37.4 °F 28.9 °F 30.2 °F 75% 29.87 in 10.0 mi West 13.8 mph 19.6 mph N/A   Overcast
4:03 AM 37.4 °F 28.9 °F 30.2 °F 75% 29.88 in 10.0 mi WNW 13.8 mph 21.9 mph N/A   Overcast
4:23 AM 37.4 °F 29.8 °F 30.2 °F 75% 29.89 in 10.0 mi West 11.5 mph 18.4 mph N/A   Overcast
4:43 AM 37.4 °F 29.8 °F 30.2 °F 75% 29.90 in 10.0 mi West 11.5 mph 17.3 mph N/A   Overcast
5:03 AM 37.4 °F 28.9 °F 30.2 °F 75% 29.90 in 10.0 mi West 13.8 mph 19.6 mph N/A   Overcast
5:23 AM 37.4 °F 29.3 °F 30.2 °F 75% 29.91 in 10.0 mi WNW 12.7 mph 18.4 mph N/A   Overcast
5:43 AM 37.4 °F 30.8 °F 30.2 °F 75% 29.92 in 10.0 mi West 9.2 mph - N/A   Overcast
6:04 AM 37.4 °F 30.8 °F 30.2 °F 75% 29.94 in 10.0 mi West 9.2 mph 16.1 mph N/A   Overcast
6:23 AM 37.4 °F 29.3 °F 30.2 °F 75% 29.94 in 10.0 mi WNW 12.7 mph 24.2 mph N/A   Overcast
6:43 AM 37.4 °F 28.5 °F 30.2 °F 75% 29.95 in 10.0 mi WNW 15.0 mph 19.6 mph N/A   Scattered Clouds
7:03 AM 37.4 °F 30.3 °F 32.0 °F 81% 29.96 in 10.0 mi WNW 10.4 mph 17.3 mph N/A   Mostly Cloudy
7:23 AM 35.6 °F 28.0 °F 32.0 °F 87% 29.96 in 10.0 mi WNW 10.4 mph - N/A   Mostly Cloudy
7:43 AM 35.6 °F 28.6 °F 32.0 °F 87% 29.97 in 10.0 mi WNW 9.2 mph 17.3 mph N/A   Overcast
8:03 AM 35.6 °F 28.0 °F 32.0 °F 87% 29.98 in 10.0 mi WNW 10.4 mph 18.4 mph N/A   Overcast
8:23 AM 35.6 °F 29.2 °F 30.2 °F 81% 29.99 in 10.0 mi WNW 8.1 mph 17.3 mph N/A   Overcast
8:43 AM 37.4 °F 30.8 °F 32.0 °F 81% 29.99 in 10.0 mi WNW 9.2 mph 17.3 mph N/A   Overcast
9:03 AM 37.4 °F 30.3 °F 32.0 °F 81% 30.01 in 10.0 mi NW 10.4 mph 19.6 mph N/A Rain Light Rain
9:23 AM 37.4 °F 29.8 °F 33.8 °F 87% 30.02 in 10.0 mi WNW 11.5 mph 20.7 mph N/A   Overcast
9:43 AM 35.6 °F 28.6 °F 33.8 °F 93% 30.03 in 10.0 mi WNW 9.2 mph - N/A   Overcast
10:03 AM 35.6 °F 27.1 °F 33.8 °F 93% 30.04 in 10.0 mi WNW 12.7 mph 16.1 mph N/A   Overcast
10:23 AM 35.6 °F 28.6 °F 33.8 °F 93% 30.04 in 5.0 mi NW 9.2 mph 18.4 mph N/A   Overcast
10:44 AM 37.4 °F 29.8 °F 33.8 °F 87% 30.05 in 10.0 mi NW 11.5 mph 16.1 mph N/A   Overcast
11:03 AM 37.4 °F 30.3 °F 33.8 °F 87% 30.05 in 10.0 mi NW 10.4 mph 16.1 mph N/A   Overcast
11:23 AM 37.4 °F 30.8 °F 33.8 °F 87% 30.06 in 10.0 mi NW 9.2 mph - N/A   Light Drizzle
11:44 AM 37.4 °F 30.8 °F 35.6 °F 93% 30.07 in 10.0 mi WNW 9.2 mph - N/A   Mostly Cloudy
12:03 PM 39.2 °F 33.0 °F 32.0 °F 75% 30.07 in 10.0 mi NW 9.2 mph - N/A   Mostly Cloudy
12:23 PM 37.4 °F 30.3 °F 32.0 °F 81% 30.07 in 7.0 mi WNW 10.4 mph 19.6 mph N/A   Light Drizzle
12:44 PM 39.2 °F 33.6 °F 35.6 °F 87% 30.07 in 10.0 mi West 8.1 mph - N/A   Mostly Cloudy
1:03 PM 37.4 °F 29.8 °F 30.2 °F 75% 30.08 in 7.0 mi NW 11.5 mph 19.6 mph N/A   Overcast
1:23 PM 37.4 °F 32.8 °F 33.8 °F 87% 30.07 in 10.0 mi WNW 5.8 mph - N/A   Overcast
1:44 PM 39.2 °F 33.0 °F 30.2 °F 70% 30.06 in 10.0 mi WNW 9.2 mph - N/A   Overcast
2:03 PM 39.2 °F 34.2 °F 28.4 °F 65% 30.06 in 10.0 mi WNW 6.9 mph - N/A   Overcast
2:23 PM 39.2 °F 34.2 °F 28.4 °F 65% 30.07 in 10.0 mi WNW 6.9 mph - N/A   Overcast
2:44 PM 39.2 °F 33.6 °F 28.4 °F 65% 30.06 in 10.0 mi NW 8.1 mph - N/A   Overcast
3:03 PM 39.2 °F 33.6 °F 28.4 °F 65% 30.06 in 10.0 mi WNW 8.1 mph - N/A   Overcast
3:23 PM 39.2 °F 34.2 °F 28.4 °F 65% 30.06 in 10.0 mi WNW 6.9 mph - N/A   Overcast
3:44 PM 39.2 °F 34.2 °F 28.4 °F 65% 30.06 in 10.0 mi West 6.9 mph - N/A   Overcast
4:03 PM 39.2 °F 33.6 °F 28.4 °F 65% 30.06 in 10.0 mi West 8.1 mph - N/A   Overcast
4:23 PM 39.2 °F 34.2 °F 28.4 °F 65% 30.05 in 10.0 mi WSW 6.9 mph - N/A   Overcast
4:43 PM 39.2 °F 35.9 °F 28.4 °F 65% 30.04 in 10.0 mi West 4.6 mph - N/A   Mostly Cloudy
5:03 PM 39.2 °F 35.9 °F 28.4 °F 65% 30.04 in 10.0 mi West 4.6 mph - N/A   Scattered Clouds
5:23 PM 39.2 °F 35.0 °F 28.4 °F 65% 30.03 in 10.0 mi West 5.8 mph - N/A   Scattered Clouds
5:43 PM 39.2 °F 35.9 °F 28.4 °F 65% 30.02 in 10.0 mi West 4.6 mph - N/A   Scattered Clouds
6:03 PM 37.4 °F - 28.4 °F 70% 30.01 in 10.0 mi Calm Calm - N/A   Mostly Cloudy
6:23 PM 37.4 °F 32.8 °F 28.4 °F 70% 30.01 in 10.0 mi West 5.8 mph - N/A   Overcast
6:43 PM 39.2 °F 33.0 °F 28.4 °F 65% 30.01 in 10.0 mi WSW 9.2 mph - N/A   Overcast
7:03 PM 37.4 °F 30.8 °F 28.4 °F 70% 30.01 in 10.0 mi WSW 9.2 mph - N/A   Scattered Clouds
7:23 PM 37.4 °F 30.3 °F 28.4 °F 70% 30.00 in 10.0 mi WSW 10.4 mph - N/A   Scattered Clouds
7:43 PM 37.4 °F 32.1 °F 28.4 °F 70% 29.99 in 10.0 mi SW 6.9 mph - N/A   Mostly Cloudy
8:03 PM 37.4 °F 32.1 °F 30.2 °F 75% 29.98 in 10.0 mi SSW 6.9 mph - N/A   Mostly Cloudy
8:23 PM 37.4 °F 29.8 °F 28.4 °F 70% 29.98 in 10.0 mi WSW 11.5 mph 16.1 mph N/A   Overcast
8:43 PM 37.4 °F 29.3 °F 30.2 °F 75% 29.97 in 10.0 mi WSW 12.7 mph 18.4 mph N/A   Mostly Cloudy
9:03 PM 37.4 °F 29.8 °F 28.4 °F 70% 29.96 in 10.0 mi WSW 11.5 mph - N/A   Mostly Cloudy
9:23 PM 37.4 °F 28.9 °F 28.4 °F 70% 29.94 in 10.0 mi SW 13.8 mph - N/A   Scattered Clouds
9:43 PM 35.6 °F 28.6 °F 28.4 °F 75% 29.93 in 10.0 mi SW 9.2 mph - N/A   Mostly Cloudy
10:03 PM 35.6 °F 30.7 °F 28.4 °F 75% 29.93 in 10.0 mi SSW 5.8 mph - N/A   Scattered Clouds
10:23 PM 35.6 °F 32.8 °F 28.4 °F 75% 29.92 in 10.0 mi South 3.5 mph - N/A   Mostly Cloudy
10:43 PM 33.8 °F - 28.4 °F 81% 29.92 in 10.0 mi Calm Calm - N/A   Mostly Cloudy
11:03 PM 33.8 °F 30.8 °F 28.4 °F 81% 29.90 in 10.0 mi South 3.5 mph - N/A   Overcast
11:23 PM 33.8 °F 30.8 °F 26.6 °F 75% 29.89 in 10.0 mi South 3.5 mph - N/A   Overcast
11:43 PM 33.8 °F 30.8 °F 26.6 °F 75% 29.89 in 10.0 mi South 3.5 mph - N/A   Overcast